Location: Ithaca
(42.4410°N, 76.4970°W)
Time: 20:23:26
(UTC-05:00)

ISS - Visible Passes

Search period start: 11 February 2016 00:00
Search period end: 21 February 2016 00:00
Orbit: 398 x 408 km, 51.6° (Epoch: 11 February)

Date Brightness Start Highest point End Pass type
(mag) Time Alt. Az. Time Alt. Az. Time Alt. Az.
11 Feb -1.0 19:25:47 10° NW 19:27:15 17° N 19:27:15 17° N visible
12 Feb -1.2 18:33:00 10° NW 18:35:11 17° N 18:36:41 13° NE visible
12 Feb 0.0 20:09:14 10° NW 20:09:19 11° NW 20:09:19 11° NW visible
13 Feb -1.7 19:16:33 10° NW 19:18:44 24° N 19:18:44 24° N visible
14 Feb -1.6 18:23:45 10° NW 18:26:17 20° NNE 18:28:09 13° NE visible
14 Feb -0.6 19:59:53 10° NW 20:00:47 17° NW 20:00:47 17° NW visible
15 Feb -2.9 19:07:02 10° NW 19:10:09 43° NNE 19:10:14 43° NNE visible
16 Feb -2.2 18:14:10 10° NW 18:17:03 28° NNE 18:19:42 11° E visible
16 Feb -1.4 19:50:27 10° WNW 19:52:21 29° W 19:52:21 29° W visible
17 Feb -3.5 18:57:21 10° NW 19:00:36 88° NNE 19:01:54 33° ESE visible
18 Feb -1.1 19:41:11 10° W 19:43:41 21° SW 19:44:12 20° SSW visible
19 Feb -2.1 18:47:38 10° WNW 18:50:42 39° SW 18:53:44 10° SSE visible
